06.05.2024;14:00;99
06.05.2024;13:00;93
06.05.2024;12:00;88
06.05.2024;11:00;87
06.05.2024;10:00;78
06.05.2024;09:00;74
06.05.2024;08:00;42
06.05.2024;07:00;39
06.05.2024;06:00;39
06.05.2024;05:00;45
06.05.2024;04:00;46
06.05.2024;03:00;47
06.05.2024;02:00;49
06.05.2024;01:00;53
06.05.2024;00:00;54
05.05.2024;23:00;57
05.05.2024;22:00;60
05.05.2024;21:00;69
05.05.2024;20:00;86
05.05.2024;19:00;90
05.05.2024;18:00;89
05.05.2024;17:00;87
05.05.2024;16:00;86
05.05.2024;15:00;81
05.05.2024;14:00;79
05.05.2024;13:00;76
05.05.2024;12:00;76
05.05.2024;11:00;72
05.05.2024;10:00;72
05.05.2024;09:00;71
05.05.2024;08:00;68
05.05.2024;07:00;64
05.05.2024;06:00;59
05.05.2024;05:00;54
05.05.2024;04:00;42
05.05.2024;03:00;37
05.05.2024;02:00;43
05.05.2024;01:00;49
05.05.2024;00:00;49
04.05.2024;23:00;55
04.05.2024;22:00;61
04.05.2024;21:00;66
04.05.2024;20:00;82
04.05.2024;19:00;88
04.05.2024;18:00;88
04.05.2024;17:00;86
04.05.2024;16:00;85
04.05.2024;15:00;84
